Home > Weather > Tuba City > Past weeks

Flag for USA Weather for the Past 2 Weeks in Tuba City, Arizona, USA

Now
73 °F

Sunny.


Feels Like: 74 °F
Forecast: 48 / 83 °F
Wind: 15 mph from South

Location: Grand Canyon National Park Airport

Current Time: May 5, 2016 at 4:32:20 PM

Latest Report: May 5, 2016 at 3:54 PM


Visibility: 10 mi

Pressure: 29.80 "Hg (25.03 "Hg at 1510m altitude)

Humidity: 12%

Dew Point: 17 °F

Location of Tuba CityLocation

Historic Weather in Tuba City — Graph

°F

Tuba City Temperature Yesterday

Maximum temperature yesterday: 77 °F (at 3:54 PM)
Minimum temperature yesterday: 35 °F (at 5:54 AM)
Average temperature yesterday: 58 °F

High & Low Weather Summary for the Past Weeks

 TemperatureHumidityPressure
High77 °F (May 4, 3:54 PM)97% (Apr 28, 1:04 PM)30.15 "Hg (Apr 28, 1:04 PM)
Low24 °F (Apr 24, 4:54 AM)7% (Apr 21, 4:54 PM)29.52 "Hg (Apr 25, 1:54 PM)
Average47 °F53%29.86 "Hg
* Reported Apr 20 2:54 PM — May 5 2:54 PM, Tuba City, Weather by CustomWeather, © 2016

Note: Actual official high and low records may vary slightly from our data, if they occured in-between our weather recording intervals... More about our weather records

Advertising

Tuba City Weather History for the Previous 24 Hours

Scroll right to see more
 ConditionsComfort  
Time TempWeatherWind HumidityBarometerVisibility
2:54 PM
Thu, May 5
73 °FSunny.18 mph14%29.80 "Hg10 mi
1:54 PM72 °FSunny.20 mph15%29.83 "Hg10 mi
12:54 PM72 °FSunny.18 mph17%29.85 "Hg10 mi
11:54 AM72 °FSunny.18 mph19%29.85 "Hg10 mi
10:54 AM68 °FSunny.15 mph22%29.87 "Hg10 mi
9:54 AM66 °FSunny.10 mph24%29.88 "Hg10 mi
8:54 AM59 °FSunny.No wind38%29.88 "Hg10 mi
7:54 AM42 °FSunny.No wind71%29.88 "Hg10 mi
6:54 AM37 °FSunny.3 mph76%29.89 "Hg10 mi
5:54 AM38 °FClear.No wind73%29.88 "Hg10 mi
4:54 AM39 °FClear.3 mph70%29.89 "Hg10 mi
3:54 AM38 °FClear.No wind73%29.90 "Hg10 mi
2:54 AM42 °FClear.8 mph62%29.90 "Hg10 mi
1:54 AM39 °FClear.No wind70%29.94 "Hg10 mi
12:54 AM41 °FClear.No wind65%29.93 "Hg10 mi
11:54 PM
Wed, May 4
44 °FClear.3 mph60%29.93 "Hg10 mi
10:54 PM46 °FClear.5 mph54%29.93 "Hg10 mi
9:54 PM52 °FClear.No wind43%29.91 "Hg6 mi
8:54 PM59 °FClear.5 mph29%29.87 "Hg10 mi
7:54 PM69 °FSunny.6 mph17%29.85 "Hg10 mi
6:54 PM71 °FPassing clouds.12 mph16%29.93 "Hg10 mi
5:54 PM74 °FPassing clouds.16 mph14%29.92 "Hg10 mi
4:54 PM75 °FPassing clouds.13 mph13%29.93 "Hg10 mi
Weather by CustomWeather, © 2016

See weather overviewHow to use our weather pages